Tracking 19709 objects as of 19-Jun-2019
HD Live streaming from Space Station
objects crossing your sky now

METOP-C

Track METOP-C now!
10-day predictions


NORAD ID: 43689
Int'l Code: 2018-087A
Perigee: 826.2 km
Apogee: 828.8 km
Inclination: 98.7 °
Period: 101.3 minutes
Semi major axis: 7198 km
RCS: Unknown
Launch date: November 7, 2018
Source: European Organisation for the Exploitation of Meteorological Satellites (EUME)
Launch site: FRENCH GUIANA (FRGUI)
aabbcc
Your satellite tracking list
Your tracking list is empty




NASA's NSSDC Master Catalog

Two Line Element Set (TLE):
1 43689U 18087A   19170.12245287 -.00000044  00000-0  00000+0 0  9991
2 43689  98.7044 229.7546 0001815 354.1987   5.9178 14.21487726 31838
Source of the keplerian elements: AFSPC